Weather History for KBUF - January, 2013

Change the Weather History Date:

Thursday, January 17, 2013

  Actual Average Record
Temperature  
Mean Temperature 25 °F 24 °F  
Max Temperature 35 °F 31 °F 56 °F (1952)
Min Temperature 15 °F 18 °F -16 °F (1982)
Degree Days  
Heating Degree Days 40 40  
Month to date heating degree days 529 675  
Since 1 July heating degree days 2690 3090  
Cooling Degree Days 0 0  
Month to date cooling degree days 0 0  
Year to date cooling degree days 0 0  
Moisture  
Dew Point 18 °F    
Average Humidity 76    
Maximum Humidity 84    
Minimum Humidity 68    
Precipitation  
Precipitation 0.03 in 0.10 in 0.86 in (1932)
Month to date precipitation 0.63 1.85  
Year to date precipitation 0.63 1.85  
Snow  
Snow 1.10 in 0.90 in 8.30 in (1958)
Month to date snowfall 2.1 14.8  
Since 1 July snowfall 24.1 51.0  
Snow Depth T in    
Sea Level Pressure  
Sea Level Pressure 30.08 in    
Wind  
Wind Speed 12 mph (North)    
Max Wind Speed 30 mph    
Max Gust Speed 37 mph    
Visibility 6 miles    
Events Fog , Snow    
T = Trace of Precipitation, MM = Missing Value Source: NWS Daily Summary

Daily Weather History Graph

Daily Weather History Graph

Search for Another Location

Airport or City:

Trip Planner

Search our weather history database for the weather conditions in past years. The results will help you decide how hot, cold, wet, or windy it might be!

Date:

Astronomy

Jan. 17, 2013 Rise Set
Actual Time 7:42 AM EST 5:08 PM EST
Civil Twilight 7:10 AM EST 5:39 PM EST
Nautical Twilight 6:35 AM EST 6:14 PM EST
Astronomical Twilight 6:02 AM EST 6:48 PM EST
Moon 10:37 AM EST (1/17) No Moon Set
Length of Visible Light 10h 29m
Length of Day
9h 26m
Waxing Crescent, 37% of the Moon is Illuminated
Jan 17
Waxing Crescent
Jan 18
First Quarter
Jan 26
Full
Feb 3
Last Quarter
Feb 10
New

Hourly Weather History & Observations

Time (EST) Temp. Windchill Dew Point Humidity Pressure Visibility Wind Dir Wind Speed Gust Speed Precip Events Conditions
12:08 AM 35.6 °F 23.2 °F 24.8 °F 65% 29.84 in 8.0 mi WSW 26.5 mph 36.8 mph 0.00 in Snow Light Snow
12:52 AM 33.8 °F 22.2 °F 28.4 °F 81% 29.86 in 2.5 mi WSW 20.7 mph 27.6 mph 0.00 in Snow Light Snow
12:54 AM 34.0 °F 22.1 °F 28.0 °F 79% 29.89 in 2.5 mi WSW 21.9 mph 27.6 mph 0.00 in Snow Light Snow
1:36 AM 33.8 °F 23.5 °F 28.4 °F 81% 29.89 in 4.0 mi WSW 16.1 mph 24.2 mph 0.00 in Snow Light Snow
1:49 AM 33.8 °F 22.5 °F 28.4 °F 81% 29.89 in 7.0 mi WSW 19.6 mph 26.5 mph 0.00 in Snow Light Snow
1:54 AM 33.1 °F 21.9 °F 28.0 °F 82% 29.92 in 7.0 mi WSW 18.4 mph 25.3 mph 0.00 in Snow Light Snow
2:39 AM 35.6 °F 24.8 °F 26.6 °F 70% 29.90 in 10.0 mi WSW 19.6 mph 27.6 mph 0.00 in Snow Light Snow
2:54 AM 35.1 °F 23.5 °F 26.1 °F 70% 29.93 in 10.0 mi WSW 21.9 mph 31.1 mph 0.00 in Snow Light Snow
3:49 AM 33.8 °F 22.5 °F 24.8 °F 70% 29.92 in 10.0 mi WSW 19.6 mph 26.5 mph 0.00 in   Overcast
3:54 AM 34.0 °F 23.0 °F 25.0 °F 70% 29.95 in 10.0 mi WSW 18.4 mph 26.5 mph 0.00 in   Overcast
4:54 AM 34.0 °F 24.6 °F 26.1 °F 73% 29.98 in 10.0 mi West 13.8 mph - N/A   Overcast
5:54 AM 34.0 °F 25.0 °F 26.1 °F 73% 29.99 in 10.0 mi West 12.7 mph - 0.00 in   Overcast
6:29 AM 32.0 °F 21.6 °F 24.8 °F 75% 29.99 in 10.0 mi NNW 15.0 mph 21.9 mph 0.00 in Snow Light Snow
6:54 AM 30.9 °F 19.4 °F 23.0 °F 72% 30.04 in 10.0 mi NNW 17.3 mph 21.9 mph 0.00 in Snow Light Snow
7:54 AM 27.0 °F 15.2 °F 19.0 °F 72% 30.09 in 10.0 mi NNW 15.0 mph - 0.00 in Snow Light Snow
8:38 AM 26.6 °F 18.2 °F 17.6 °F 69% 30.09 in 10.0 mi NNW 8.1 mph - 0.00 in Snow Light Snow
8:54 AM 26.1 °F 18.4 °F 17.1 °F 69% 30.13 in 10.0 mi North 6.9 mph 17.3 mph 0.00 in Snow Light Snow
9:54 AM 26.1 °F 16.8 °F 17.1 °F 69% 30.16 in 10.0 mi North 9.2 mph - 0.00 in Snow Light Snow
10:54 AM 25.0 °F 19.3 °F 15.1 °F 66% 30.18 in 10.0 mi NNE 4.6 mph - 0.00 in Snow Light Snow
11:54 AM 24.1 °F 15.2 °F 16.0 °F 71% 30.18 in 5.0 mi NE 8.1 mph - 0.00 in Snow Light Snow
12:54 PM 21.9 °F 11.7 °F 15.1 °F 75% 30.16 in 7.0 mi NNE 9.2 mph - 0.00 in Snow Light Snow
1:50 PM 21.2 °F 10.9 °F 15.8 °F 80% 30.11 in 7.0 mi NNE 9.2 mph - 0.00 in Snow Light Snow
1:54 PM 23.0 °F 12.4 °F 16.0 °F 74% 30.14 in 7.0 mi NNE 10.4 mph - 0.00 in Snow Light Snow
2:54 PM 21.9 °F 11.0 °F 14.0 °F 72% 30.14 in 10.0 mi NE 10.4 mph - 0.00 in Snow Light Snow
3:54 PM 21.9 °F 11.7 °F 12.9 °F 68% 30.14 in 8.0 mi NE 9.2 mph - 0.00 in Snow Light Snow
4:06 PM 21.2 °F 10.9 °F 12.2 °F 68% 30.12 in 9.0 mi NNE 9.2 mph - 0.00 in Snow Light Snow
4:54 PM 21.0 °F 11.4 °F 14.0 °F 74% 30.17 in 8.0 mi ENE 8.1 mph - 0.00 in Snow Light Snow
5:54 PM 21.0 °F 10.6 °F 14.0 °F 74% 30.17 in 8.0 mi East 9.2 mph - 0.00 in Snow Light Snow
6:54 PM 21.0 °F 11.4 °F 12.9 °F 71% 30.17 in 10.0 mi East 8.1 mph - 0.00 in Snow Light Snow
7:54 PM 21.0 °F 11.4 °F 14.0 °F 74% 30.18 in 5.0 mi NE 8.1 mph - 0.00 in Snow Light Snow
8:13 PM 19.4 °F 8.6 °F 14.0 °F 80% 30.13 in 2.0 mi NE 9.2 mph - 0.00 in Snow Light Snow
8:26 PM 19.4 °F 6.6 °F 15.8 °F 86% 30.12 in 3.0 mi NE 12.7 mph - N/A Snow Light Snow
8:54 PM 19.9 °F 8.6 °F 15.1 °F 81% 30.16 in 3.0 mi ENE 10.4 mph - 0.00 in Snow Light Snow
9:11 PM 19.4 °F 7.9 °F 14.0 °F 80% 30.13 in 2.0 mi NNE 10.4 mph - 0.00 in Snow Light Snow
9:28 PM 19.4 °F 8.6 °F 14.0 °F 80% 30.13 in 1.0 mi NE 9.2 mph - 0.00 in Snow Light Snow
9:31 PM 19.4 °F 7.2 °F 14.0 °F 80% 30.13 in 0.5 mi NNE 11.5 mph - 0.00 in Snow Snow
9:54 PM 18.0 °F 6.1 °F 14.0 °F 84% 30.17 in 0.5 mi NNE 10.4 mph - 0.01 in Fog , Snow Snow
9:58 PM 17.6 °F 5.0 °F 14.0 °F 86% 30.13 in 0.8 mi NNE 11.5 mph - 0.00 in Snow Light Snow
10:25 PM 17.6 °F 9.3 °F 15.8 °F 93% 30.13 in 0.8 mi NE 5.8 mph - 0.01 in Snow Light Snow
10:29 PM 17.6 °F 6.4 °F 15.8 °F 93% 30.13 in 1.0 mi NNE 9.2 mph - 0.01 in Snow Light Snow
10:41 PM 17.6 °F 7.3 °F 12.2 °F 79% 30.13 in 2.0 mi North 8.1 mph - 0.01 in Snow Light Snow
10:43 PM 17.6 °F 7.3 °F 14.0 °F 86% 30.13 in 1.5 mi North 8.1 mph - 0.01 in Snow Light Snow
10:54 PM 17.1 °F 5.0 °F 12.9 °F 84% 30.18 in 0.5 mi North 10.4 mph 17.3 mph 0.01 in Fog , Snow Snow
11:13 PM 17.6 °F 5.0 °F 12.2 °F 79% 30.15 in 1.5 mi NNE 11.5 mph - 0.00 in Snow Light Snow
11:21 PM 15.8 °F 2.7 °F 12.2 °F 86% 30.14 in 2.0 mi NNE 11.5 mph - 0.00 in Snow Light Snow
11:27 PM 15.8 °F 2.7 °F 12.2 °F 86% 30.14 in 3.0 mi NE 11.5 mph - 0.00 in Snow Light Snow
11:48 PM 15.8 °F 6.1 °F 10.4 °F 79% 30.14 in 3.0 mi NNE 6.9 mph - 0.00 in Snow Light Snow
11:54 PM 15.1 °F 7.7 °F 12.0 °F 88% 30.19 in 5.0 mi NE 4.6 mph - 0.00 in Snow Light Snow